Flag for Canada Weather past 2 weeks in Alert, Nunavut, Canada

Now
37 °F

Mostly cloudy.


Feels Like: 34 °F
Forecast: 37 / 40 °F
Wind: 5 mph from Northwest

Location: Alert Airport

Current Time: Jun 30, 2015 at 9:13:57 PM

Latest Report: Jun 30, 2015 at 8:00 PM


Visibility: 15 mi

Pressure: 29.96 "Hg

Humidity: 93%

Dew point: 36 °F

Location of AlertLocation

Historic Weather in Alert — Graph

°F

Alert temperature yesterday

Maximum temperature yesterday: 59 °F (at 11:00 AM)
Minimum temperature yesterday: 30 °F (at 3:00 AM)
Average temperature yesterday: 40 °F

Past Weeks' High & Low Weather Summary

 TemperatureHumidityPressure
High59 °F (Jun 29, 11:00 AM)100% (Jun 15, 8:00 PM)30.19 "Hg (Jun 15, 8:00 PM)
Low27 °F (Jun 17, 9:00 AM)48% (Jun 29, 10:00 AM)29.54 "Hg (Jun 18, 8:00 PM)
Average38 °F83%29.87 "Hg
* Reported Jun 15 8:00 PM — Jun 30 8:00 PM, Alert, Weather by CustomWeather, © 2015

Note: Actual official high and low records may vary slightly from our data, if they occured in-between our weather recording intervals... More about our weather records

Advertising

Alert weather history for previous 24 hours

 ConditionsComfort  
Time TempWeatherWind HumidityBarometerVisibility
8:00 PM
Tue, Jun 30
37 °FMostly cloudy.5 mph93%29.96 "Hg15 mi
7:00 PM37 °FMostly cloudy.9 mph93%29.95 "Hg15 mi
6:00 PM36 °FPartly sunny.9 mph93%29.94 "Hg15 mi
5:00 PM37 °FMore clouds than sun.3 mph93%29.92 "Hg15 mi
4:00 PM37 °FMore clouds than sun.3 mph93%29.91 "Hg15 mi
3:00 PM37 °FLow clouds.6 mph93%29.93 "Hg15 mi
2:00 PM37 °FBroken clouds.6 mph93%29.93 "Hg15 mi
1:00 PM37 °FPartly sunny.5 mph93%29.94 "Hg15 mi
12:00 PM37 °FMostly cloudy.5 mph93%29.95 "Hg15 mi
11:00 AM37 °FMostly cloudy.6 mph93%29.95 "Hg15 mi
10:00 AM37 °FMostly cloudy.6 mph93%29.95 "Hg15 mi
9:00 AM37 °FMostly cloudy.7 mph93%29.95 "Hg15 mi
8:00 AM37 °FOvercast.3 mph93%29.96 "Hg15 mi
6:00 AM39 °FMostly cloudy.3 mph87%29.96 "Hg15 mi
5:00 AM39 °FMostly cloudy.6 mph93%29.96 "Hg15 mi
4:00 AM41 °FMostly cloudy.3 mph87%29.95 "Hg15 mi
3:00 AM41 °FLight rain. More clouds than sun.5 mph87%29.95 "Hg15 mi
2:00 AM41 °FOvercast.6 mph81%29.94 "Hg15 mi
1:00 AM37 °FOvercast.2 mph87%29.93 "Hg15 mi
Weather by CustomWeather, © 2015

See weather overviewHow to use our weather pages